Glendale Luke AFB, AZ

12:56 AM MST on April 25, 2017 (GMT -0700)
Luke Air Force Base

Weather History for KLUF - January, 2014

Change the Weather History Date:

Saturday, January 4, 2014

  Actual Average Record
Temperature  
Mean Temperature 54 °F -  
Max Temperature 66 °F 65 °F 64 °F (2017)
Min Temperature 43 °F 35 °F 30 °F (2015)
Degree Days  
Heating Degree Days 10    
Growing Degree Days 4 (Base 50)    
Moisture  
Dew Point 36 °F    
Average Humidity 57    
Maximum Humidity 76    
Minimum Humidity 31    
Precipitation  
Precipitation 0.00 in - - ()
Sea Level Pressure  
Sea Level Pressure 29.96 in    
Wind  
Wind Speed 5 mph (North)    
Max Wind Speed 8 mph    
Max Gust Speed -    
Visibility 10 miles    
Events      
Averages and records for this station are not official NWS values.
T = Trace of Precipitation, MM = Missing Value Source: NWS Daily Summary

Daily Weather History Graph

Daily Weather History Graph

Search for Another Location

Airport or City:

Trip Planner

Search our weather history database for the weather conditions in past years. The results will help you decide how hot, cold, wet, or windy it might be!

Date:

Astronomy

Jan. 04, 2014 Rise Set
Actual Time 7:34 AM MST 5:35 PM MST
Civil Twilight 7:06 AM MST 6:02 PM MST
Nautical Twilight 6:36 AM MST 6:33 PM MST
Astronomical Twilight 6:05 AM MST 7:03 PM MST
Moon 9:54 AM MST (1/4) 9:45 PM MST (1/4)
Length of Visible Light 10h 55m
Length of Day
10h 00m
Waxing Crescent, 16% of the Moon is Illuminated
Jan 4
Waxing Crescent
Jan 7
First Quarter
Jan 15
Full
Jan 23
Last Quarter
Jan 30
New

Hourly Weather History & Observations

Time (MST) Temp. Windchill Dew Point Humidity Pressure Visibility Wind Dir Wind Speed Gust Speed Precip Events Conditions
12:58 AM 46.6 °F - 35.8 °F 66% 29.94 in 10.0 mi North 4.6 mph - N/A   Clear
1:58 AM 44.6 °F 40.2 °F 35.4 °F 70% 29.94 in 10.0 mi NNW 8.1 mph - N/A   Clear
2:58 AM 45.5 °F - 35.1 °F 67% 29.94 in 10.0 mi NNE 2.3 mph - N/A   Clear
3:58 AM 44.1 °F 42.5 °F 35.8 °F 73% 29.93 in 10.0 mi North 3.5 mph - N/A   Clear
4:58 AM 44.4 °F 42.9 °F 35.8 °F 72% 29.94 in 10.0 mi NNW 3.5 mph - N/A   Clear
5:58 AM 43.3 °F 40.7 °F 36.3 °F 76% 29.94 in 10.0 mi North 4.6 mph - N/A   Scattered Clouds
6:58 AM 43.7 °F 40.3 °F 36.3 °F 75% 29.94 in 10.0 mi NW 5.8 mph - N/A   Clear
7:58 AM 43.7 °F 40.3 °F 36.0 °F 74% 29.97 in 10.0 mi North 5.8 mph - N/A   Clear
8:58 AM 46.6 °F - 36.9 °F 69% 29.99 in 10.0 mi NNE 3.5 mph - N/A   Overcast
9:58 AM 51.8 °F - 36.3 °F 56% 30.00 in 10.0 mi North 2.3 mph - N/A   Clear
10:58 AM 56.7 °F - 36.1 °F 46% 30.00 in 10.0 mi ENE 3.5 mph - N/A   Clear
11:58 AM 58.3 °F - 35.1 °F 42% 29.98 in 10.0 mi NE 1.2 mph - N/A   Clear
12:58 PM 61.2 °F - 35.8 °F 39% 29.95 in 10.0 mi NE 3.5 mph - N/A   Clear
1:58 PM 63.5 °F - 34.3 °F 34% 29.93 in 10.0 mi SE 2.3 mph - N/A   Clear
2:58 PM 65.3 °F - 34.2 °F 31% 29.91 in 10.0 mi Variable 2.3 mph - N/A   Clear
3:58 PM 66.0 °F - 34.2 °F 31% 29.91 in 10.0 mi SSW 3.5 mph - N/A   Clear
4:58 PM 64.8 °F - 34.7 °F 33% 29.91 in 10.0 mi SSW 8.1 mph - N/A   Clear
5:58 PM 61.0 °F - 36.5 °F 40% 29.94 in 10.0 mi SSW 2.3 mph - N/A   Clear
6:58 PM 56.1 °F - 36.1 °F 47% 29.95 in 10.0 mi SSW 4.6 mph - N/A   Clear
7:58 PM 52.2 °F - 38.3 °F 59% 29.97 in 10.0 mi WNW 5.8 mph - N/A   Clear
8:58 PM 48.4 °F - 38.7 °F 69% 29.99 in 10.0 mi NNE 8.1 mph - N/A   Clear
9:58 PM 47.8 °F - 37.9 °F 69% 30.01 in 10.0 mi NW 6.9 mph - N/A   Clear
10:58 PM 47.1 °F - 37.2 °F 68% 30.03 in 10.0 mi WNW 5.8 mph - N/A   Clear
11:58 PM 45.9 °F 42.3 °F 36.7 °F 70% 30.03 in 10.0 mi North 6.9 mph - N/A   Clear